DELTA 1 DEB, 42079

Orbit data source: Space-Track

DELTA 1 DEB, 42079 is space debris in SSO originally from a launch on Sun, 15 Dec 1968 UTC launched from the Air Force Western Test Range (AFWTR). Debris objects in space refer to the collection of defunct objects orbiting the Earth. Examples of debris include non-operational satellites, rocket bodies, and fragments generated from explosions, collisions, or faulty payload assembly.

Loading next visibility...
Identifier
42079, 1968-114F
Orbit
SSO
Country
Flag of USUS
Related business
Manufacturer
Aerojet
Mission
Spacecraft
Bus & Motor
Unknown
Mass
Unknown
Launch date (UTC)
1968-12-15 (57 years ago)
Launch vehicle
Unknown
Launch site
Air Force Western Test Range (AFWTR)
Object type
Payload
Rocket body
Debris
Shape & HBR
Unknown shape, 0.1 m
Radar Cross Section
Small (<0.1 m²)

Expand to show TLE details & history
Last TLE update: 21 hours ago

TLE from 21 hours ago
0 DELTA 1 DEB
1 42079U 68114F   25346.43103380  .00000174  00000-0  16349-2 0  9991
2 42079 102.0035 318.2766 0316424  57.9821  90.5497 12.26207559539549
Epoch: 2025-12-12T10:20Z
TLE epoch observation values (Epoch: 2025-12-12T10:20:41.320Z)
Latitude
27.22416°
Longitude
-92.01898°
Altitude
1,578.976 km
Speed
7.077 km/s
True Right ascension
09h 38m 06s
True Declination
27° 05' 56"
Sunlit
Object was in daylight at epoch
Visualization orbit readout
Latitude
Unknown
Longitude
Unknown
Altitude
Unknown
Speed
Unknown
Apparent Right ascension
Unknown
Apparent Declination
Unknown
Sunlit
N/A
Visualization observer readout
Local Sidereal Time
05:23:58
Azimuth
Unknown
Elevation
Unknown
Doppler factor
Unknown
Orbital elements
Apogee altitude
1,814.491 km
Perigee altitude
1,311.924 km
Semi-major axis
7,941.345 km
Eccentricity
0.03164
Inclination
102.0035°
RAAN
318.2766°
Arg. of periapsis
57.9821°
True anomaly
94.1717°
Mean anomaly
90.5497°
Eccentric anomaly
92.36114°
Mean motion
3.06692 °/min
Orbital period
117.38 mins
BSTAR
0.0016349
Loading maneuver chart data...
Computing Atmospheric mass density...
Loading historical data...
Loading historical data...
Loading historical data...
Loading historical data...
Loading historical data...
Loading historical data...
Loading historical data...

Documentation

Showing up to 5 results
|